Weather History for Jackson, KY

Change the Weather History Date:

Wednesday, November 13, 2013

  Actual Average Record
Temperature  
Mean Temperature 31 °F 49 °F  
Max Temperature 40 °F 59 °F 78 °F (1989)
Min Temperature 21 °F 40 °F 16 °F (1986)
Degree Days  
Heating Degree Days 34 16  
Month to date heating degree days 210 178  
Since 1 July heating degree days 480 475  
Cooling Degree Days 0 0  
Month to date cooling degree days 0 0  
Year to date cooling degree days 1069 1150  
Moisture  
Dew Point 18 °F    
Average Humidity 62    
Maximum Humidity 84    
Minimum Humidity 40    
Precipitation  
Precipitation 0.00 in 0.12 in 0.62 in (1993)
Month to date precipitation 0.95 1.60  
Year to date precipitation 47.57 41.80  
Snow  
Snow 0.00 in 0.00 in - ()
Month to date snowfall 0.9 0.1  
Since 1 July snowfall 1.0 0.2  
Since 1 September snowfall 1.0 0.2  
Snow Depth 0.00 in    
Sea Level Pressure  
Sea Level Pressure 30.58 in    
Wind  
Wind Speed 3 mph (SW)    
Max Wind Speed 7 mph    
Max Gust Speed 10 mph    
Visibility 10 miles    
Events      
T = Trace of Precipitation, MM = Missing Value Source: NWS Daily Summary

Daily Weather History Graph

Daily Weather History Graph

Search for Another Location

Airport:

Trip Planner

Search our weather history database for the weather conditions in past years. The results will help you decide how hot, cold, wet, or windy it might be!

Date:

Astronomy

Nov. 13, 2013 Rise Set
Actual Time 7:11 AM EST 5:23 PM EST
Civil Twilight 6:43 AM EST 5:51 PM EST
Nautical Twilight 6:11 AM EST 6:22 PM EST
Astronomical Twilight 5:40 AM EST 6:53 PM EST
Moon 3:06 PM EST (11/13) 3:07 AM EST (11/13)
Length of Visible Light 11h 08m
Length of Day
10h 12m
Waxing Gibbous, 84% of the Moon is Illuminated
Nov 13
Waxing Gibbous
Nov 17
Full
Nov 25
Last Quarter
Dec 2
New
Dec 9
First Quarter

Hourly Weather History & Observations

Time (EST) Temp. Windchill Dew Point Humidity Pressure Visibility Wind Dir Wind Speed Gust Speed Precip Events Conditions
12:53 AM 24.1 °F - 17.1 °F 75% 30.61 in 10.0 mi Calm Calm - N/A   Clear
1:53 AM 25.0 °F 20.7 °F 17.1 °F 72% 30.60 in 10.0 mi North 3.5 mph - N/A   Clear
2:53 AM 23.0 °F - 16.0 °F 74% 30.60 in 10.0 mi Calm Calm - N/A   Clear
3:53 AM 23.0 °F 18.4 °F 17.1 °F 78% 30.60 in 10.0 mi West 3.5 mph - N/A   Clear
4:53 AM 23.0 °F 18.4 °F 17.1 °F 78% 30.61 in 10.0 mi NW 3.5 mph - N/A   Partly Cloudy
5:53 AM 23.0 °F 15.8 °F 17.1 °F 78% 30.62 in 10.0 mi NW 5.8 mph - N/A   Clear
6:53 AM 23.0 °F 17.0 °F 18.0 °F 81% 30.63 in 10.0 mi North 4.6 mph - N/A   Clear
7:53 AM 21.9 °F - 18.0 °F 85% 30.65 in 10.0 mi Calm Calm - N/A   Clear
8:53 AM 27.0 °F - 19.9 °F 75% 30.66 in 10.0 mi Calm Calm - N/A   Clear
9:53 AM 27.0 °F - 23.0 °F 85% 30.66 in 10.0 mi Calm Calm - N/A   Clear
10:53 AM 30.9 °F - 21.9 °F 69% 30.66 in 10.0 mi Calm Calm - N/A   Clear
11:15 AM 30.9 °F - 21.0 °F 67% 30.62 in 10.0 mi Calm Calm - N/A   Mostly Cloudy
11:53 AM 34.0 °F 31.0 °F 21.0 °F 59% 30.64 in 10.0 mi Variable 3.5 mph - N/A   Mostly Cloudy
12:06 PM 34.0 °F 31.0 °F 18.0 °F 52% 30.60 in 10.0 mi Variable 3.5 mph - N/A   Partly Cloudy
12:53 PM 35.1 °F - 19.0 °F 52% 30.61 in 10.0 mi Calm Calm - N/A   Clear
1:53 PM 37.9 °F 34.4 °F 19.9 °F 48% 30.59 in 10.0 mi Variable 4.6 mph - N/A   Clear
2:53 PM 39.0 °F 34.8 °F 19.0 °F 45% 30.57 in 10.0 mi Variable 5.8 mph - N/A   Clear
3:53 PM 39.0 °F 36.8 °F 18.0 °F 43% 30.56 in 10.0 mi Variable 3.5 mph - N/A   Clear
4:53 PM 37.0 °F - 18.0 °F 46% 30.55 in 10.0 mi Calm Calm - N/A   Clear
5:53 PM 34.0 °F - 16.0 °F 48% 30.54 in 10.0 mi Calm Calm - N/A   Clear
6:53 PM 34.0 °F 31.0 °F 16.0 °F 48% 30.52 in 10.0 mi South 3.5 mph - N/A   Clear
7:53 PM 33.1 °F 30.0 °F 16.0 °F 50% 30.52 in 10.0 mi South 3.5 mph - N/A   Clear
8:53 PM 30.0 °F 26.5 °F 17.1 °F 59% 30.50 in 10.0 mi South 3.5 mph - N/A   Clear
9:53 PM 30.9 °F 27.5 °F 18.0 °F 59% 30.49 in 10.0 mi SSW 3.5 mph - N/A   Clear
10:53 PM 30.0 °F 25.2 °F 18.0 °F 61% 30.47 in 10.0 mi SSW 4.6 mph - N/A   Clear
11:53 PM 28.9 °F 23.9 °F 19.0 °F 67% 30.45 in 10.0 mi SSW 4.6 mph - N/A   Clear